Location: Cartignies
(50.0929°N, 3.8447°E)
Time: 14:05:25
(UTC+00:00)

Meteor 2-15 Rocket - Pass Details

Date: 12 January 2026
Orbit: 939 x 956 km, 82.5° (Epoch: 15 February)

Event Time Altitude Azimuth Distance (km) Brightness Sun altitude
Rises 18:13:22 0° 351° (N) 3,647 7.5 -19.5°
Reaches altitude 10° 18:15:54 10° 354° (N) 2,696 6.8 -19.9°
Maximum altitude 18:22:03 68° 77° (ENE) 1,027 4.3 -20.9°
Drops below altitude 10° 18:28:09 10° 160° (SSE) 2,669 6.7 -21.9°
Sets 18:30:38 0° 163° (SSE) 3,608 7.4 -22.3°
